| time (UTC) | temp F | wind direction | speed MPH | gust MPH | rain 1hr in | rain 24hr in | rain mn in | humidity % | barometer mb |
| 20260506091304 | 56 | 52 | 0.0 | 2.0 | 0.00 | 0.00 | 0.00 | 88 | 1009.4 |
| 20260506090802 | 56 | 354 | 1.0 | 2.0 | 0.00 | 0.00 | 0.00 | 89 | 1009.5 |
| 20260506090259 | 55 | 49 | 2.0 | 3.0 | 0.00 | 0.00 | 0.00 | 90 | 1009.3 |
| 20260506085755 | 55 | 89 | 1.0 | 2.0 | 0.00 | 0.00 | 0.00 | 91 | 1009.6 |
| 20260506085252 | 55 | 48 | 2.0 | 3.0 | 0.00 | 0.00 | 0.00 | 90 | 1009.6 |
| 20260506084748 | 55 | 42 | 1.0 | 2.0 | 0.00 | 0.00 | 0.00 | 91 | 1009.6 |
| 20260506084245 | 55 | 25 | 0.0 | 1.0 | 0.00 | 0.00 | 0.00 | 91 | 1009.5 |
| 20260506083742 | 55 | 78 | 0.0 | 2.0 | 0.00 | 0.00 | 0.00 | 90 | 1009.7 |
| 20260506083240 | 55 | 73 | 0.0 | 2.0 | 0.00 | 0.00 | 0.00 | 90 | 1010.0 |
| 20260506082737 | 55 | 80 | 2.0 | 3.0 | 0.00 | 0.00 | 0.00 | 90 | 1010.1 |
| 20260506082232 | 55 | 115 | 0.0 | 2.0 | 0.00 | 0.00 | 0.00 | 90 | 1009.7 |
| 20260506081730 | 55 | 58 | 1.0 | 2.0 | 0.00 | 0.00 | 0.00 | 90 | 1009.5 |
| 20260506081227 | 55 | 44 | 0.0 | 2.0 | 0.00 | 0.00 | 0.00 | 91 | 1009.7 |
| 20260506080726 | 55 | 47 | 1.0 | 2.0 | 0.00 | 0.00 | 0.00 | 91 | 1009.8 |
| 20260506080221 | 55 | 39 | 2.0 | 2.0 | 0.00 | 0.00 | 0.00 | 91 | 1009.4 |
| 20260506073206 | 54 | 68 | 0.0 | 2.0 | 0.00 | 0.00 | 0.00 | 91 | 1009.7 |
| 20260506072702 | 54 | 66 | 0.0 | 2.0 | 0.00 | 0.00 | 0.00 | 91 | 1009.7 |
| 20260506072200 | 55 | 62 | 1.0 | 2.0 | 0.00 | 0.00 | 0.00 | 91 | 1010.0 |
| 20260506071657 | 54 | 111 | 1.0 | 2.0 | 0.00 | 0.00 | 0.00 | 91 | 1009.8 |
| 20260506071155 | 54 | 42 | 0.0 | 2.0 | 0.00 | 0.00 | 0.00 | 91 | 1009.8 |
| 20260506070652 | 54 | 80 | 1.0 | 2.0 | 0.00 | 0.00 | 0.00 | 91 | 1009.8 |
| 20260506070148 | 54 | 44 | 0.0 | 2.0 | 0.00 | 0.00 | 0.00 | 91 | 1010.0 |
| 20260506062126 | 53 | 51 | 2.0 | 3.0 | 0.00 | 0.00 | 0.00 | 92 | 1010.3 |
| 20260506061621 | 53 | 353 | 0.0 | 2.0 | 0.00 | 0.00 | 0.00 | 92 | 1010.3 |
| 20260506061120 | 53 | 53 | 1.0 | 2.0 | 0.00 | 0.00 | 0.00 | 92 | 1010.3 |
| 20260506060618 | 53 | 44 | 1.0 | 1.0 | 0.00 | 0.00 | 0.00 | 92 | 1010.3 |
| 20260506060114 | 53 | 75 | 0.0 | 1.0 | 0.00 | 0.00 | 0.00 | 92 | 1010.4 |
| 20260506051046 | 54 | 54 | 2.0 | 3.0 | 0.00 | 0.00 | 0.00 | 91 | 1010.8 |
| 20260506050544 | 54 | 112 | 1.0 | 2.0 | 0.00 | 0.00 | 0.00 | 91 | 1010.9 |
| 20260506045035 | 55 | 65 | 0.0 | 2.0 | 0.00 | 0.00 | 0.00 | 90 | 1010.9 |
| 20260506044533 | 55 | 41 | 1.0 | 2.0 | 0.00 | 0.00 | 0.00 | 89 | 1010.8 |
| 20260506044029 | 55 | 28 | 0.0 | 2.0 | 0.00 | 0.00 | 0.00 | 89 | 1010.8 |
| 20260506043526 | 55 | 50 | 1.0 | 1.0 | 0.00 | 0.00 | 0.00 | 89 | 1010.8 |
| 20260506043025 | 55 | 48 | 1.0 | 2.0 | 0.00 | 0.00 | 0.00 | 89 | 1010.9 |
| 20260506042523 | 55 | 37 | 0.0 | 2.0 | 0.00 | 0.00 | 0.00 | 88 | 1010.9 |
| 20260506042021 | 55 | 47 | 1.0 | 2.0 | 0.00 | 0.00 | 0.00 | 89 | 1010.9 |
| 20260506041520 | 56 | 44 | 0.0 | 2.0 | 0.00 | 0.00 | 0.00 | 88 | 1011.1 |
| 20260506041016 | 56 | 33 | 0.0 | 2.0 | 0.00 | 0.00 | 0.00 | 88 | 1010.9 |
| 20260506040514 | 56 | 32 | 0.0 | 2.0 | 0.00 | 0.00 | 0.00 | 87 | 1011.0 |
| 20260506040009 | 56 | 62 | 0.0 | 2.0 | 0.00 | 0.07 | 0.07 | 87 | 1011.1 |
| 20260506035507 | 56 | 50 | 0.0 | 1.0 | 0.00 | 0.07 | 0.07 | 87 | 1010.8 |
| 20260506035003 | 56 | 50 | 0.0 | 2.0 | 0.00 | 0.07 | 0.07 | 87 | 1011.0 |
| 20260506034501 | 57 | 44 | 1.0 | 2.0 | 0.00 | 0.07 | 0.07 | 86 | 1011.1 |
| 20260506033957 | 57 | 62 | 0.0 | 1.0 | 0.00 | 0.07 | 0.07 | 85 | 1011.1 |
| 20260506033455 | 57 | 45 | 0.0 | 2.0 | 0.00 | 0.07 | 0.07 | 85 | 1011.1 |
| 20260506032951 | 57 | 15 | 0.0 | 1.0 | 0.00 | 0.07 | 0.07 | 85 | 1010.9 |
| 20260506032449 | 58 | 55 | 0.0 | 2.0 | 0.00 | 0.07 | 0.07 | 84 | 1010.9 |
| 20260506031945 | 58 | 330 | 0.0 | 1.0 | 0.00 | 0.07 | 0.07 | 84 | 1010.9 |
| 20260506031443 | 58 | 62 | 0.0 | 2.0 | 0.00 | 0.07 | 0.07 | 83 | 1010.9 |
| 20260506030940 | 58 | 55 | 0.0 | 2.0 | 0.00 | 0.07 | 0.07 | 83 | 1011.1 |
| 20260506030438 | 59 | 50 | 0.0 | 1.0 | 0.00 | 0.07 | 0.07 | 83 | 1010.8 |
| 20260506025935 | 59 | 50 | 0.0 | 1.0 | 0.00 | 0.07 | 0.07 | 82 | 1010.9 |
| 20260506025432 | 59 | 62 | 0.0 | 1.0 | 0.00 | 0.07 | 0.07 | 81 | 1010.9 |
| 20260506024928 | 60 | 50 | 0.0 | 2.0 | 0.00 | 0.07 | 0.07 | 79 | 1010.9 |
| 20260506024425 | 60 | 49 | 0.0 | 1.0 | 0.00 | 0.07 | 0.07 | 79 | 1010.8 |
| 20260506023921 | 60 | 32 | 0.0 | 1.0 | 0.00 | 0.07 | 0.07 | 79 | 1010.7 |
| 20260506023418 | 61 | 39 | 1.0 | 1.0 | 0.00 | 0.07 | 0.07 | 76 | 1010.8 |
| 20260506022915 | 61 | 37 | 0.0 | 1.0 | 0.00 | 0.07 | 0.07 | 76 | 1010.9 |
| 20260506022413 | 61 | 69 | 0.0 | 0.0 | 0.00 | 0.07 | 0.07 | 76 | 1010.9 |
| 20260506021910 | 61 | 66 | 0.0 | 0.0 | 0.00 | 0.07 | 0.07 | 78 | 1010.8 |
| 20260506021407 | 62 | 75 | 1.0 | 2.0 | 0.00 | 0.07 | 0.07 | 76 | 1010.9 |
| 20260506020904 | 62 | 13 | 0.0 | 1.0 | 0.00 | 0.07 | 0.07 | 75 | 1011.0 |
| 20260506020402 | 63 | 50 | 0.0 | 1.0 | 0.00 | 0.07 | 0.07 | 75 | 1010.9 |
| 20260506015859 | 63 | 37 | 0.0 | 1.0 | 0.00 | 0.07 | 0.07 | 73 | 1011.0 |
| 20260506015356 | 64 | 103 | 0.0 | 1.0 | 0.00 | 0.07 | 0.07 | 72 | 1010.8 |
| 20260506014853 | 64 | 22 | 0.0 | 0.0 | 0.00 | 0.07 | 0.07 | 71 | 1010.8 |
| 20260506014350 | 64 | 89 | 0.0 | 0.0 | 0.00 | 0.07 | 0.07 | 70 | 1010.9 |
| 20260506013847 | 64 | 80 | 0.0 | 0.0 | 0.00 | 0.07 | 0.07 | 70 | 1010.8 |
| 20260506013344 | 65 | 135 | 0.0 | 1.0 | 0.00 | 0.07 | 0.07 | 70 | 1010.7 |
| 20260506012840 | 64 | 205 | 0.0 | 1.0 | 0.00 | 0.07 | 0.07 | 67 | 1010.8 |
| 20260506012338 | 65 | 50 | 0.0 | 0.0 | 0.00 | 0.07 | 0.07 | 68 | 1010.8 |
| 20260506011835 | 65 | 37 | 0.0 | 1.0 | 0.00 | 0.07 | 0.07 | 68 | 1010.5 |
| 20260506011331 | 65 | 158 | 0.0 | 1.0 | 0.00 | 0.07 | 0.07 | 65 | 1010.5 |
| 20260506010829 | 66 | 44 | 0.0 | 0.0 | 0.00 | 0.07 | 0.07 | 65 | 1010.3 |
| 20260506010327 | 66 | 50 | 0.0 | 0.0 | 0.00 | 0.07 | 0.07 | 64 | 1010.4 |
| 20260506005823 | 66 | 50 | 0.0 | 1.0 | 0.00 | 0.07 | 0.07 | 63 | 1010.3 |
| 20260506005320 | 66 | 37 | 0.0 | 0.0 | 0.00 | 0.07 | 0.07 | 61 | 1010.0 |
| 20260506004816 | 67 | 37 | 0.0 | 0.0 | 0.00 | 0.07 | 0.07 | 62 | 1010.1 |
| 20260506004314 | 67 | 37 | 0.0 | 1.0 | 0.00 | 0.07 | 0.07 | 63 | 1010.0 |
| 20260506003810 | 68 | 172 | 0.0 | 0.0 | 0.00 | 0.07 | 0.07 | 63 | 1010.0 |
| 20260506003306 | 68 | 44 | 0.0 | 0.0 | 0.00 | 0.07 | 0.07 | 63 | 1009.8 |
| 20260506002802 | 69 | 44 | 0.0 | 1.0 | 0.00 | 0.07 | 0.07 | 64 | 1010.0 |
| 20260506002259 | 69 | 217 | 0.0 | 0.0 | 0.00 | 0.07 | 0.07 | 59 | 1009.7 |
| 20260506001755 | 70 | 89 | 0.0 | 2.0 | 0.00 | 0.07 | 0.07 | 54 | 1009.8 |
| 20260506001252 | 70 | 309 | 0.0 | 1.0 | 0.00 | 0.07 | 0.07 | 60 | 1009.6 |
| 20260506000749 | 70 | 148 | 0.0 | 2.0 | 0.00 | 0.07 | 0.07 | 56 | 1009.6 |
| 20260506000247 | 70 | 22 | 0.0 | 2.0 | 0.00 | 0.07 | 0.07 | 55 | 1009.7 |
| 20260505235743 | 70 | 22 | 0.0 | 2.0 | 0.00 | 0.07 | 0.07 | 56 | 1009.6 |
| 20260505235241 | 70 | 172 | 0.0 | 0.0 | 0.00 | 0.07 | 0.07 | 56 | 1009.6 |
| 20260505234738 | 71 | 309 | 0.0 | 1.0 | 0.00 | 0.07 | 0.07 | 58 | 1009.7 |
| 20260505234235 | 71 | 317 | 1.0 | 2.0 | 0.00 | 0.07 | 0.07 | 56 | 1009.4 |
| 20260505233732 | 71 | 195 | 0.0 | 1.0 | 0.00 | 0.07 | 0.07 | 54 | 1009.4 |
| 20260505233230 | 71 | 13 | 0.0 | 2.0 | 0.00 | 0.07 | 0.07 | 58 | 1009.4 |
| 20260505232727 | 72 | 154 | 0.0 | 1.0 | 0.00 | 0.07 | 0.07 | 51 | 1009.4 |
| 20260505232224 | 72 | 197 | 0.0 | 2.0 | 0.00 | 0.07 | 0.07 | 53 | 1009.3 |
| 20260505231721 | 72 | 55 | 0.0 | 2.0 | 0.00 | 0.07 | 0.07 | 55 | 1009.3 |
| 20260505231220 | 73 | 315 | 0.0 | 2.0 | 0.00 | 0.07 | 0.07 | 55 | 1009.1 |
| 20260505230717 | 72 | 106 | 2.0 | 3.0 | 0.00 | 0.07 | 0.07 | 49 | 1009.2 |
| 20260505230214 | 71 | 190 | 0.0 | 2.0 | 0.00 | 0.07 | 0.07 | 56 | 1009.3 |
| 20260505225710 | 71 | 77 | 2.0 | 3.0 | 0.00 | 0.07 | 0.07 | 57 | 1009.3 |
| 20260505225207 | 71 | 158 | 2.0 | 4.0 | 0.00 | 0.07 | 0.07 | 55 | 1009.2 |
| 20260505224703 | 71 | 121 | 2.0 | 3.0 | 0.00 | 0.07 | 0.07 | 57 | 1009.2 |
| 20260505224201 | 70 | 77 | 2.0 | 2.0 | 0.00 | 0.07 | 0.07 | 61 | 1009.2 |
| 20260505223658 | 69 | 140 | 0.0 | 2.0 | 0.00 | 0.07 | 0.07 | 68 | 1009.0 |
| 20260505223154 | 69 | 82 | 1.0 | 2.0 | 0.00 | 0.07 | 0.07 | 73 | 1009.1 |
| 20260505222650 | 69 | 271 | 0.0 | 2.0 | 0.00 | 0.07 | 0.07 | 76 | 1008.8 |
| 20260505222147 | 69 | 154 | 0.0 | 1.0 | 0.00 | 0.07 | 0.07 | 75 | 1009.0 |
| 20260505221644 | 69 | 89 | 0.0 | 1.0 | 0.00 | 0.07 | 0.07 | 73 | 1008.9 |
| 20260505221140 | 69 | 37 | 0.0 | 1.0 | 0.00 | 0.07 | 0.07 | 77 | 1009.0 |
| 20260505220637 | 69 | 62 | 0.0 | 2.0 | 0.00 | 0.07 | 0.07 | 78 | 1009.1 |
| 20260505220135 | 68 | 37 | 0.0 | 1.0 | 0.00 | 0.07 | 0.07 | 84 | 1008.8 |
| 20260505215632 | 67 | 127 | 0.0 | 2.0 | 0.00 | 0.07 | 0.07 | 86 | 1009.0 |
| 20260505215130 | 67 | 119 | 0.0 | 2.0 | 0.00 | 0.07 | 0.07 | 87 | 1008.8 |
| 20260505214628 | 68 | 29 | 0.0 | 2.0 | 0.00 | 0.07 | 0.07 | 88 | 1009.1 |
| 20260505214125 | 67 | 100 | 2.0 | 3.0 | 0.00 | 0.07 | 0.07 | 87 | 1009.0 |
| 20260505213623 | 67 | 117 | 0.0 | 2.0 | 0.00 | 0.07 | 0.07 | 86 | 1009.1 |
| 20260505213119 | 68 | 172 | 0.0 | 2.0 | 0.00 | 0.07 | 0.07 | 86 | 1009.0 |
| 20260505212615 | 68 | 22 | 0.0 | 2.0 | 0.00 | 0.07 | 0.07 | 85 | 1009.0 |
| 20260505212113 | 68 | 119 | 0.0 | 2.0 | 0.00 | 0.07 | 0.07 | 83 | 1009.0 |
| 20260505211610 | 68 | 152 | 0.0 | 1.0 | 0.00 | 0.07 | 0.07 | 83 | 1009.0 |
| 20260505211107 | 69 | 117 | 0.0 | 2.0 | 0.00 | 0.07 | 0.07 | 82 | 1008.9 |
| 20260505210603 | 68 | 117 | 0.0 | 1.0 | 0.00 | 0.07 | 0.07 | 77 | 1008.8 |
| 20260505210100 | 69 | 117 | 0.0 | 1.0 | 0.00 | 0.07 | 0.07 | 76 | 1008.9 |
| 20260505205558 | 69 | 344 | 1.0 | 2.0 | 0.05 | 0.07 | 0.07 | 70 | 1008.8 |
| 20260505205055 | 70 | 72 | 3.0 | 8.0 | 0.07 | 0.07 | 0.07 | 68 | 1008.9 |
| 20260505204552 | 74 | 172 | 5.0 | 9.0 | 0.00 | 0.06 | 0.06 | 51 | 1009.5 |
| 20260505204050 | 76 | 153 | 4.0 | 10.0 | 0.00 | 0.06 | 0.06 | 40 | 1008.9 |
| 20260505203546 | 77 | 161 | 1.0 | 14.0 | 0.00 | 0.06 | 0.06 | 40 | 1008.5 |
| 20260505203044 | 77 | 98 | 3.0 | 5.0 | 0.00 | 0.06 | 0.06 | 40 | 1008.2 |
| 20260505202539 | 78 | 197 | 1.0 | 6.0 | 0.00 | 0.06 | 0.06 | 39 | 1008.4 |
| 20260505202035 | 78 | 113 | 0.0 | 3.0 | 0.00 | 0.06 | 0.06 | 38 | 1008.4 |
| 20260505201533 | 78 | 249 | 2.0 | 6.0 | 0.00 | 0.06 | 0.06 | 37 | 1008.3 |
| 20260505201030 | 79 | 197 | 5.0 | 12.0 | 0.00 | 0.06 | 0.06 | 36 | 1008.3 |
| 20260505200528 | 80 | 215 | 4.0 | 7.0 | 0.00 | 0.06 | 0.06 | 37 | 1008.3 |
| 20260505200025 | 81 | 152 | 5.0 | 10.0 | 0.00 | 0.06 | 0.06 | 33 | 1008.3 |
| 20260505195520 | 82 | 17 | 0.0 | 6.0 | 0.00 | 0.06 | 0.06 | 38 | 1008.3 |
| 20260505195018 | 81 | 95 | 3.0 | 6.0 | 0.00 | 0.06 | 0.06 | 37 | 1008.4 |
| 20260505194515 | 80 | 75 | 2.0 | 9.0 | 0.00 | 0.06 | 0.06 | 36 | 1008.5 |
| 20260505194010 | 80 | 12 | 2.0 | 9.0 | 0.00 | 0.06 | 0.06 | 36 | 1008.3 |
| 20260505193508 | 82 | 155 | 4.0 | 11.0 | 0.00 | 0.06 | 0.06 | 35 | 1008.3 |
| 20260505193005 | 82 | 164 | 4.0 | 13.0 | 0.00 | 0.06 | 0.06 | 35 | 1008.3 |
| 20260505192504 | 82 | 93 | 5.0 | 8.0 | 0.00 | 0.06 | 0.06 | 37 | 1008.4 |
| 20260505192001 | 80 | 195 | 5.0 | 6.0 | 0.00 | 0.06 | 0.06 | 37 | 1008.5 |
| 20260505191459 | 81 | 258 | 4.0 | 13.0 | 0.00 | 0.06 | 0.06 | 35 | 1008.7 |
| 20260505190956 | 82 | 180 | 4.0 | 11.0 | 0.00 | 0.06 | 0.06 | 33 | 1008.5 |
| 20260505190451 | 82 | 238 | 3.0 | 7.0 | 0.00 | 0.06 | 0.06 | 35 | 1008.6 |
| 20260505185947 | 82 | 184 | 3.0 | 10.0 | 0.00 | 0.06 | 0.06 | 33 | 1008.9 |
| 20260505185444 | 82 | 196 | 3.0 | 14.0 | 0.00 | 0.06 | 0.06 | 34 | 1008.9 |
| 20260505184940 | 82 | 103 | 2.0 | 12.0 | 0.00 | 0.06 | 0.06 | 39 | 1009.1 |
| 20260505184437 | 81 | 104 | 3.0 | 8.0 | 0.00 | 0.06 | 0.06 | 36 | 1009.3 |
| 20260505183933 | 82 | 204 | 2.0 | 8.0 | 0.00 | 0.06 | 0.06 | 37 | 1009.2 |
| 20260505183431 | 81 | 205 | 3.0 | 11.0 | 0.00 | 0.06 | 0.06 | 34 | 1009.5 |
| 20260505182927 | 80 | 122 | 3.0 | 11.0 | 0.00 | 0.06 | 0.06 | 35 | 1009.2 |
| 20260505182425 | 80 | 49 | 3.0 | 14.0 | 0.00 | 0.06 | 0.06 | 37 | 1009.5 |
| 20260505181920 | 81 | 344 | 5.0 | 14.0 | 0.00 | 0.06 | 0.06 | 35 | 1009.4 |
| 20260505181418 | 82 | 214 | 4.0 | 10.0 | 0.00 | 0.06 | 0.06 | 36 | 1009.6 |
| 20260505180915 | 82 | 205 | 5.0 | 5.0 | 0.00 | 0.06 | 0.06 | 38 | 1009.6 |
| 20260505180411 | 81 | 165 | 4.0 | 9.0 | 0.00 | 0.06 | 0.06 | 39 | 1009.5 |
| 20260505175908 | 82 | 136 | 2.0 | 8.0 | 0.00 | 0.06 | 0.06 | 38 | 1009.6 |
| 20260505175404 | 80 | 98 | 2.0 | 7.0 | 0.00 | 0.06 | 0.06 | 40 | 1009.8 |
| 20260505174901 | 81 | 184 | 4.0 | 7.0 | 0.00 | 0.06 | 0.06 | 39 | 1009.8 |
| 20260505174358 | 81 | 336 | 4.0 | 7.0 | 0.00 | 0.06 | 0.06 | 39 | 1009.8 |
| 20260505173854 | 80 | 166 | 5.0 | 13.0 | 0.00 | 0.06 | 0.06 | 39 | 1010.1 |
| 20260505173351 | 79 | 231 | 4.0 | 10.0 | 0.00 | 0.06 | 0.06 | 41 | 1009.8 |
| 20260505172848 | 80 | 134 | 3.0 | 6.0 | 0.00 | 0.06 | 0.06 | 42 | 1009.6 |
| 20260505172346 | 80 | 19 | 1.0 | 9.0 | 0.00 | 0.06 | 0.06 | 41 | 1009.8 |
| 20260505171845 | 80 | 148 | 15.0 | 15.0 | 0.00 | 0.06 | 0.06 | 39 | 1010.0 |
| 20260505171342 | 80 | 145 | 5.0 | 11.0 | 0.00 | 0.06 | 0.06 | 39 | 1010.1 |
| 20260505170838 | 80 | 74 | 2.0 | 8.0 | 0.00 | 0.06 | 0.06 | 43 | 1010.0 |
| 20260505170336 | 79 | 223 | 3.0 | 20.0 | 0.00 | 0.06 | 0.06 | 42 | 1010.1 |
| 20260505165831 | 79 | 93 | 5.0 | 13.0 | 0.00 | 0.06 | 0.06 | 45 | 1010.0 |
| 20260505165327 | 80 | 157 | 4.0 | 6.0 | 0.00 | 0.06 | 0.06 | 44 | 1010.0 |
| 20260505164822 | 80 | 299 | 2.0 | 11.0 | 0.00 | 0.06 | 0.06 | 43 | 1010.2 |
| 20260505164320 | 80 | 350 | 2.0 | 7.0 | 0.00 | 0.06 | 0.06 | 43 | 1010.2 |
| 20260505163818 | 79 | 167 | 10.0 | 13.0 | 0.00 | 0.06 | 0.06 | 41 | 1010.3 |
| 20260505163316 | 78 | 154 | 7.0 | 11.0 | 0.00 | 0.06 | 0.06 | 43 | 1010.5 |
| 20260505162814 | 79 | 147 | 3.0 | 4.0 | 0.00 | 0.06 | 0.06 | 45 | 1010.5 |
| 20260505162310 | 78 | 166 | 3.0 | 8.0 | 0.00 | 0.06 | 0.06 | 42 | 1010.3 |
| 20260505161807 | 79 | 195 | 3.0 | 9.0 | 0.00 | 0.06 | 0.06 | 46 | 1010.5 |
| 20260505161305 | 79 | 98 | 2.0 | 9.0 | 0.00 | 0.06 | 0.06 | 43 | 1010.5 |
| 20260505160802 | 78 | 171 | 4.0 | 8.0 | 0.00 | 0.06 | 0.06 | 44 | 1010.6 |
| 20260505160300 | 78 | 184 | 2.0 | 7.0 | 0.00 | 0.06 | 0.06 | 45 | 1010.7 |
| 20260505153238 | 77 | 77 | 2.0 | 8.0 | 0.00 | 0.06 | 0.06 | 50 | 1010.9 |
| 20260505152735 | 77 | 167 | 4.0 | 6.0 | 0.00 | 0.06 | 0.06 | 45 | 1011.0 |
| 20260505152231 | 76 | 122 | 1.0 | 15.0 | 0.00 | 0.06 | 0.06 | 46 | 1011.0 |
| 20260505151726 | 76 | 208 | 3.0 | 5.0 | 0.00 | 0.06 | 0.06 | 48 | 1010.9 |
| 20260505151224 | 76 | 83 | 5.0 | 8.0 | 0.00 | 0.06 | 0.06 | 50 | 1011.0 |
| 20260505150720 | 75 | 192 | 5.0 | 9.0 | 0.00 | 0.06 | 0.06 | 48 | 1010.9 |
| 20260505150217 | 75 | 152 | 4.0 | 13.0 | 0.00 | 0.06 | 0.06 | 47 | 1011.1 |
| 20260505140645 | 71 | 78 | 1.0 | 8.0 | 0.00 | 0.06 | 0.06 | 58 | 1011.4 |
| 20260505140142 | 70 | 184 | 2.0 | 9.0 | 0.00 | 0.06 | 0.06 | 54 | 1011.5 |
| 20260505130106 | 66 | 127 | 2.0 | 6.0 | 0.00 | 0.06 | 0.06 | 67 | 1011.8 |
| 20260505124555 | 64 | 200 | 0.0 | 5.0 | 0.00 | 0.06 | 0.06 | 73 | 1011.8 |
| 20260505124052 | 64 | 172 | 2.0 | 4.0 | 0.00 | 0.06 | 0.06 | 75 | 1011.8 |
| 20260505123548 | 63 | 183 | 3.0 | 7.0 | 0.00 | 0.06 | 0.06 | 75 | 1011.8 |
| 20260505123044 | 61 | 125 | 2.0 | 3.0 | 0.00 | 0.06 | 0.06 | 83 | 1011.6 |
| 20260505122541 | 59 | 89 | 0.0 | 3.0 | 0.00 | 0.06 | 0.06 | 92 | 1011.8 |
| 20260505122039 | 59 | 96 | 0.0 | 5.0 | 0.00 | 0.06 | 0.06 | 98 | 1011.8 |
| 20260505121535 | 59 | 83 | 0.0 | 1.0 | 0.00 | 0.06 | 0.06 | 98 | 1011.8 |
| 20260505121032 | 59 | 160 | 0.0 | 2.0 | 0.00 | 0.06 | 0.06 | 99 | 1012.0 |
| 20260505120528 | 57 | 144 | 1.0 | 2.0 | 0.00 | 0.06 | 0.06 | 99 | 1011.9 |
| 20260505120024 | 57 | 72 | 0.0 | 2.0 | 0.00 | 0.06 | 0.06 | 99 | 1011.7 |
| 20260505115518 | 56 | 95 | 1.0 | 2.0 | 0.00 | 0.06 | 0.06 | 99 | 1012.0 |
| 20260505115017 | 56 | 73 | 2.0 | 2.0 | 0.00 | 0.06 | 0.06 | 99 | 1011.9 |
| 20260505114513 | 55 | 76 | 1.0 | 1.0 | 0.00 | 0.06 | 0.06 | 99 | 1011.9 |
| 20260505114009 | 54 | 118 | 0.0 | 1.0 | 0.00 | 0.06 | 0.06 | 99 | 1011.9 |
| 20260505113506 | 54 | 84 | 0.0 | 2.0 | 0.00 | 0.06 | 0.06 | 99 | 1011.8 |
| 20260505113003 | 55 | 92 | 0.0 | 2.0 | 0.00 | 0.06 | 0.06 | 99 | 1012.0 |
| 20260505112459 | 53 | 98 | 1.0 | 2.0 | 0.00 | 0.06 | 0.06 | 99 | 1011.7 |
| 20260505111956 | 53 | 166 | 0.0 | 2.0 | 0.00 | 0.06 | 0.06 | 99 | 1011.9 |
| 20260505111450 | 52 | 62 | 0.0 | 2.0 | 0.00 | 0.06 | 0.06 | 99 | 1011.9 |
| 20260505110947 | 51 | 169 | 0.0 | 2.0 | 0.00 | 0.06 | 0.06 | 99 | 1012.0 |
| 20260505110444 | 51 | 80 | 1.0 | 3.0 | 0.00 | 0.06 | 0.06 | 99 | 1011.7 |
| 20260505101914 | 48 | 28 | 2.0 | 2.0 | 0.00 | 0.06 | 0.06 | 99 | 1011.3 |
| 20260505101409 | 48 | 77 | 1.0 | 2.0 | 0.00 | 0.06 | 0.06 | 99 | 1011.3 |
| 20260505100905 | 48 | 55 | 0.0 | 3.0 | 0.00 | 0.06 | 0.06 | 99 | 1011.1 |
| 20260505100402 | 48 | 78 | 1.0 | 2.0 | 0.00 | 0.06 | 0.06 | 99 | 1011.3 |
| 20260505095857 | 49 | 97 | 1.0 | 2.0 | 0.00 | 0.06 | 0.06 | 99 | 1011.2 |
| 20260505095355 | 49 | 46 | 1.0 | 2.0 | 0.00 | 0.06 | 0.06 | 99 | 1011.1 |
| 20260505094851 | 49 | 95 | 1.0 | 2.0 | 0.00 | 0.06 | 0.06 | 99 | 1010.8 |
| 20260505094348 | 49 | 38 | 2.0 | 3.0 | 0.00 | 0.06 | 0.06 | 99 | 1011.0 |
| 20260505093844 | 49 | 116 | 2.0 | 3.0 | 0.00 | 0.06 | 0.06 | 99 | 1011.3 |
| 20260505093341 | 49 | 49 | 1.0 | 2.0 | 0.00 | 0.06 | 0.06 | 99 | 1011.1 |
| 20260505092838 | 49 | 94 | 2.0 | 3.0 | 0.00 | 0.06 | 0.06 | 99 | 1011.0 |
| 20260505092337 | 49 | 84 | 1.0 | 2.0 | 0.00 | 0.06 | 0.06 | 99 | 1011.1 |
| 20260505091833 | 50 | 112 | 0.0 | 2.0 | 0.00 | 0.06 | 0.06 | 99 | 1011.0 |